Location: Batang Balui
(2.7000°N, 113.7833°E)
Time: 15:46:40
(UTC+00:00)

Envisat - Visible Passes

Search period start: 08 December 2022 00:00
Search period end: 18 December 2022 00:00
Orbit: 763 x 765 km, 98.2° (Epoch: 08 December)

Date Brightness Start Highest point End Pass type
(mag) Time Alt. Az. Time Alt. Az. Time Alt. Az.
08 Dec 4.1 19:55:03 40° ESE 19:55:03 40° ESE 19:59:11 10° S visible
09 Dec 5.6 19:17:43 15° ESE 19:17:43 15° ESE 19:20:20 10° SE visible
09 Dec 4.1 20:57:54 25° WSW 20:57:54 25° WSW 21:00:42 10° SW visible
10 Dec 3.4 20:20:34 54° S 20:20:34 54° S 20:24:27 10° SSW visible
11 Dec 4.7 19:43:14 29° ESE 19:43:14 29° ESE 19:46:53 10° SSE visible
11 Dec 4.9 21:23:25 12° WSW 21:23:25 12° WSW 21:24:05 10° WSW visible
12 Dec 6.0 19:05:53 10° ESE 19:05:53 10° ESE 19:06:14 10° ESE visible
12 Dec 3.9 20:46:05 32° SW 20:46:05 32° SW 20:49:08 10° SSW visible
13 Dec 3.8 20:08:45 46° SSE 20:08:45 46° SSE 20:12:27 10° S visible
14 Dec 5.2 19:31:24 21° ESE 19:31:24 21° ESE 19:34:25 10° SSE visible
14 Dec 4.7 21:11:35 16° WSW 21:11:35 16° WSW 21:13:03 10° SW visible
15 Dec 3.8 20:34:15 37° SW 20:34:15 37° SW 20:37:24 10° SSW visible
16 Dec 4.3 19:56:55 36° SE 19:56:55 36° SE 20:00:19 10° S visible
17 Dec 5.7 19:19:35 15° ESE 19:19:35 15° ESE 19:21:37 10° SE visible
17 Dec 4.5 20:59:47 20° WSW 20:59:47 20° WSW 21:01:42 10° SW visible
